Year,Month,Day,Hour,Minute,Value (Times are PST for temperature in C)
2013,09,26,00,00,7.30
2013,09,26,00,01,7.30
2013,09,26,00,02,7.30
2013,09,26,00,03,7.30
2013,09,26,00,04,7.30
2013,09,26,00,05,7.30
2013,09,26,00,06,7.30
2013,09,26,00,07,7.30
2013,09,26,00,08,7.20
2013,09,26,00,09,7.20
2013,09,26,00,10,7.20
2013,09,26,00,11,7.20
2013,09,26,00,12,7.20
2013,09,26,00,13,7.20
2013,09,26,00,14,7.20
2013,09,26,00,15,7.20
2013,09,26,00,16,7.20
2013,09,26,00,17,7.20
2013,09,26,00,18,7.20
2013,09,26,00,19,7.20
2013,09,26,00,20,7.20
2013,09,26,00,21,7.10
2013,09,26,00,22,7.10
2013,09,26,00,23,7.10
2013,09,26,00,24,7.10
2013,09,26,00,25,7.10
2013,09,26,00,26,7.10
2013,09,26,00,27,7.10
2013,09,26,00,28,7.10
2013,09,26,00,29,7.10
2013,09,26,00,30,7.10
2013,09,26,00,31,7.10
2013,09,26,00,32,7.10
2013,09,26,00,33,7.10
2013,09,26,00,34,7.10
2013,09,26,00,35,7.10
2013,09,26,00,36,7.10
2013,09,26,00,37,7.10
2013,09,26,00,38,7.10
2013,09,26,00,39,7.10
2013,09,26,00,40,7.00
2013,09,26,00,41,7.00
2013,09,26,00,42,7.00
2013,09,26,00,43,7.00
2013,09,26,00,44,7.00
2013,09,26,00,45,6.90
2013,09,26,00,46,7.00
2013,09,26,00,47,6.90
2013,09,26,00,48,6.90
2013,09,26,00,49,6.90
2013,09,26,00,50,6.90
2013,09,26,00,51,6.90
2013,09,26,00,52,6.90
2013,09,26,00,53,6.90
2013,09,26,00,54,6.90
2013,09,26,00,55,6.90
2013,09,26,00,56,6.90
2013,09,26,00,57,6.80
2013,09,26,00,58,6.80
2013,09,26,00,59,6.80
2013,09,26,01,00,6.80
2013,09,26,01,01,6.80
2013,09,26,01,02,6.80
2013,09,26,01,03,6.80
2013,09,26,01,04,6.80
2013,09,26,01,05,6.80
2013,09,26,01,06,6.90
2013,09,26,01,07,6.90
2013,09,26,01,08,6.90
2013,09,26,01,09,6.90
2013,09,26,01,10,6.90
2013,09,26,01,11,6.90
2013,09,26,01,12,6.90
2013,09,26,01,13,6.90
2013,09,26,01,14,6.90
2013,09,26,01,15,6.90
2013,09,26,01,16,7.00
2013,09,26,01,17,7.10
2013,09,26,01,18,7.20
2013,09,26,01,19,7.20
2013,09,26,01,20,7.30
2013,09,26,01,21,7.50
2013,09,26,01,22,7.60
2013,09,26,01,23,7.70
2013,09,26,01,24,7.70
2013,09,26,01,25,7.80
2013,09,26,01,26,7.80
2013,09,26,01,27,7.90
2013,09,26,01,28,7.90
2013,09,26,01,29,8.00
2013,09,26,01,30,8.00
2013,09,26,01,31,8.10
2013,09,26,01,32,8.20
2013,09,26,01,33,8.20
2013,09,26,01,34,8.20
2013,09,26,01,35,8.20
2013,09,26,01,36,8.20
2013,09,26,01,37,8.20
2013,09,26,01,38,8.20
2013,09,26,01,39,8.20
2013,09,26,01,40,8.20
2013,09,26,01,41,8.20
2013,09,26,01,42,8.20
2013,09,26,01,43,8.20
2013,09,26,01,44,8.20
2013,09,26,01,45,8.20
2013,09,26,01,46,8.20
2013,09,26,01,47,8.20
2013,09,26,01,48,8.20
2013,09,26,01,49,8.20
2013,09,26,01,50,8.20
2013,09,26,01,51,8.20
2013,09,26,01,52,8.20
2013,09,26,01,53,8.20
2013,09,26,01,54,8.20
2013,09,26,01,55,8.20
2013,09,26,01,56,8.20
2013,09,26,01,57,8.20
2013,09,26,01,58,8.20
2013,09,26,01,59,8.20
2013,09,26,02,00,8.30
2013,09,26,02,01,8.30
2013,09,26,02,02,8.30
2013,09,26,02,03,8.30
2013,09,26,02,04,8.30
2013,09,26,02,05,8.30
2013,09,26,02,06,8.30
2013,09,26,02,07,8.30
2013,09,26,02,08,8.30
2013,09,26,02,09,8.30
2013,09,26,02,10,8.30
2013,09,26,02,11,8.30
2013,09,26,02,12,8.30
2013,09,26,02,13,8.30
2013,09,26,02,14,8.30
2013,09,26,02,15,8.30
2013,09,26,02,16,8.30
2013,09,26,02,17,8.30
2013,09,26,02,18,8.30
2013,09,26,02,19,8.30
2013,09,26,02,20,8.30
2013,09,26,02,21,8.30
2013,09,26,02,22,8.30
2013,09,26,02,23,8.30
2013,09,26,02,24,8.40
2013,09,26,02,25,8.40
2013,09,26,02,26,8.40
2013,09,26,02,27,8.40
2013,09,26,02,28,8.40
2013,09,26,02,29,8.40
2013,09,26,02,30,8.40
2013,09,26,02,31,8.40
2013,09,26,02,32,8.40
2013,09,26,02,33,8.40
2013,09,26,02,34,8.40
2013,09,26,02,35,8.40
2013,09,26,02,36,8.40
2013,09,26,02,37,8.40
2013,09,26,02,38,8.40
2013,09,26,02,39,8.40
2013,09,26,02,40,8.40
2013,09,26,02,41,8.40
2013,09,26,02,42,8.40
2013,09,26,02,43,8.40
2013,09,26,02,44,8.40
2013,09,26,02,45,8.40
2013,09,26,02,46,8.40
2013,09,26,02,47,8.40
2013,09,26,02,48,8.40
2013,09,26,02,49,8.40
2013,09,26,02,50,8.40
2013,09,26,02,51,8.40
2013,09,26,02,52,8.40
2013,09,26,02,53,8.40
2013,09,26,02,54,8.50
2013,09,26,02,55,8.60
2013,09,26,02,56,8.70
2013,09,26,02,57,8.80
2013,09,26,02,58,8.80
2013,09,26,02,59,8.80
2013,09,26,03,00,8.80
2013,09,26,03,01,8.80
2013,09,26,03,02,8.90
2013,09,26,03,03,8.90
2013,09,26,03,04,8.90
2013,09,26,03,05,9.00
2013,09,26,03,06,9.00
2013,09,26,03,07,9.10
2013,09,26,03,08,9.20
2013,09,26,03,09,9.40
2013,09,26,03,10,9.50
2013,09,26,03,11,9.70
2013,09,26,03,12,9.80
2013,09,26,03,13,9.90
2013,09,26,03,14,10.00
2013,09,26,03,15,10.10
2013,09,26,03,16,10.10
2013,09,26,03,17,10.20
2013,09,26,03,18,10.20
2013,09,26,03,19,10.20
2013,09,26,03,20,10.20
2013,09,26,03,21,10.30
2013,09,26,03,22,10.30
2013,09,26,03,23,10.40
2013,09,26,03,24,10.40
2013,09,26,03,25,10.50
2013,09,26,03,26,10.60
2013,09,26,03,27,10.60
2013,09,26,03,28,10.60
2013,09,26,03,29,10.60
2013,09,26,03,30,10.50
2013,09,26,03,31,10.50
2013,09,26,03,32,10.40
2013,09,26,03,33,10.40
2013,09,26,03,34,10.30
2013,09,26,03,35,10.30
2013,09,26,03,36,10.30
2013,09,26,03,37,10.30
2013,09,26,03,38,10.30
2013,09,26,03,39,10.30
2013,09,26,03,40,10.30
2013,09,26,03,41,10.30
2013,09,26,03,42,10.30
2013,09,26,03,43,10.30
2013,09,26,03,44,10.30
2013,09,26,03,45,10.30
2013,09,26,03,46,10.30
2013,09,26,03,47,10.30
2013,09,26,03,48,10.30
2013,09,26,03,49,10.30
2013,09,26,03,50,10.30
2013,09,26,03,51,10.30
2013,09,26,03,52,10.20
2013,09,26,03,53,10.20
2013,09,26,03,54,10.10
2013,09,26,03,55,10.10
2013,09,26,03,56,10.00
2013,09,26,03,57,9.90
2013,09,26,03,58,9.90
2013,09,26,03,59,9.90
2013,09,26,04,00,9.90
2013,09,26,04,01,9.80
2013,09,26,04,02,9.80
2013,09,26,04,03,9.80
2013,09,26,04,04,9.80
2013,09,26,04,05,9.80
2013,09,26,04,06,9.80
2013,09,26,04,07,9.80
2013,09,26,04,08,9.70
2013,09,26,04,09,9.70
2013,09,26,04,10,9.70
2013,09,26,04,11,9.70
2013,09,26,04,12,9.70
2013,09,26,04,13,9.70
2013,09,26,04,14,9.70
2013,09,26,04,15,9.70
2013,09,26,04,16,9.70
2013,09,26,04,17,9.70
2013,09,26,04,18,9.70
2013,09,26,04,19,9.70
2013,09,26,04,20,9.70
2013,09,26,04,21,9.60
2013,09,26,04,22,9.60
2013,09,26,04,23,9.60
2013,09,26,04,24,9.50
2013,09,26,04,25,9.50
2013,09,26,04,26,9.40
2013,09,26,04,27,9.40
2013,09,26,04,28,9.40
2013,09,26,04,29,9.40
2013,09,26,04,30,9.40
2013,09,26,04,31,9.40
2013,09,26,04,32,9.40
2013,09,26,04,33,9.30
2013,09,26,04,34,9.30
2013,09,26,04,35,9.30
2013,09,26,04,36,9.30
2013,09,26,04,37,9.30
2013,09,26,04,38,9.30
2013,09,26,04,39,9.40
2013,09,26,04,40,9.50
2013,09,26,04,41,9.60
2013,09,26,04,42,9.60
2013,09,26,04,43,9.60
2013,09,26,04,44,9.60
2013,09,26,04,45,9.60
2013,09,26,04,46,9.60
2013,09,26,04,47,9.60
2013,09,26,04,48,9.60
2013,09,26,04,49,9.60
2013,09,26,04,50,9.60
2013,09,26,04,51,9.50
2013,09,26,04,52,9.50
2013,09,26,04,53,9.40
2013,09,26,04,54,9.40
2013,09,26,04,55,9.40
2013,09,26,04,56,9.40
2013,09,26,04,57,9.30
2013,09,26,04,58,9.30
2013,09,26,04,59,9.30
2013,09,26,05,00,9.30
2013,09,26,05,01,9.20
2013,09,26,05,02,9.20
2013,09,26,05,03,9.30
2013,09,26,05,04,9.30
2013,09,26,05,05,9.30
2013,09,26,05,06,9.30
2013,09,26,05,07,9.30
2013,09,26,05,08,9.30
2013,09,26,05,09,9.30
2013,09,26,05,10,9.30
2013,09,26,05,11,9.20
2013,09,26,05,12,9.20
2013,09,26,05,13,9.20
2013,09,26,05,14,9.20
2013,09,26,05,15,9.20
2013,09,26,05,16,9.10
2013,09,26,05,17,9.10
2013,09,26,05,18,9.10
2013,09,26,05,19,9.00
2013,09,26,05,20,9.00
2013,09,26,05,21,9.00
2013,09,26,05,22,8.90
2013,09,26,05,23,8.90
2013,09,26,05,24,8.90
2013,09,26,05,25,8.90
2013,09,26,05,26,8.80
2013,09,26,05,27,8.80
2013,09,26,05,28,8.80
2013,09,26,05,29,8.80
2013,09,26,05,30,8.80
2013,09,26,05,31,8.70
2013,09,26,05,32,8.70
2013,09,26,05,33,8.70
2013,09,26,05,34,8.70
2013,09,26,05,35,8.70
2013,09,26,05,36,8.70
2013,09,26,05,37,8.70
2013,09,26,05,38,8.70
2013,09,26,05,39,8.70
2013,09,26,05,40,8.70
2013,09,26,05,41,8.70
2013,09,26,05,42,8.70
2013,09,26,05,43,8.70
2013,09,26,05,44,8.70
2013,09,26,05,45,8.80
2013,09,26,05,46,8.80
2013,09,26,05,47,8.80
2013,09,26,05,48,8.80
2013,09,26,05,49,8.80
2013,09,26,05,50,8.80
2013,09,26,05,51,8.80
2013,09,26,05,52,8.80
2013,09,26,05,53,8.80
2013,09,26,05,54,8.80
2013,09,26,05,55,8.80
2013,09,26,05,56,8.80
2013,09,26,05,57,8.80
2013,09,26,05,58,8.80
2013,09,26,05,59,8.80
2013,09,26,06,00,8.90
2013,09,26,06,01,8.90
2013,09,26,06,02,8.90
2013,09,26,06,03,8.90
2013,09,26,06,04,8.90
2013,09,26,06,05,8.80
2013,09,26,06,06,8.80
2013,09,26,06,07,8.80
2013,09,26,06,08,8.90
2013,09,26,06,09,8.90
2013,09,26,06,10,8.90
2013,09,26,06,11,8.90
2013,09,26,06,12,8.90
2013,09,26,06,13,8.90
2013,09,26,06,14,8.90
2013,09,26,06,15,8.90
2013,09,26,06,16,8.90
2013,09,26,06,17,8.90
2013,09,26,06,18,8.90
2013,09,26,06,19,8.90
2013,09,26,06,20,8.90
2013,09,26,06,21,8.90
2013,09,26,06,22,8.80
2013,09,26,06,23,8.80
2013,09,26,06,24,8.80
2013,09,26,06,25,8.80
2013,09,26,06,26,8.80
2013,09,26,06,27,8.70
2013,09,26,06,28,8.70
2013,09,26,06,29,8.80
2013,09,26,06,30,8.80
2013,09,26,06,31,8.80
2013,09,26,06,32,8.80
2013,09,26,06,33,8.90
2013,09,26,06,34,9.00
2013,09,26,06,35,9.10
2013,09,26,06,36,9.30
2013,09,26,06,37,9.40
2013,09,26,06,38,9.40
2013,09,26,06,39,9.40
2013,09,26,06,40,9.40
2013,09,26,06,41,9.40
2013,09,26,06,42,9.30
2013,09,26,06,43,9.30
2013,09,26,06,44,9.20
2013,09,26,06,45,9.20
2013,09,26,06,46,9.20
2013,09,26,06,47,9.10
2013,09,26,06,48,9.10
2013,09,26,06,49,9.10
2013,09,26,06,50,9.10
2013,09,26,06,51,9.00
2013,09,26,06,52,9.00
2013,09,26,06,53,9.00
2013,09,26,06,54,8.90
2013,09,26,06,55,8.90
2013,09,26,06,56,8.90
2013,09,26,06,57,8.90
2013,09,26,06,58,8.80
2013,09,26,06,59,8.80
2013,09,26,07,00,8.80
2013,09,26,07,01,8.70
2013,09,26,07,02,8.70
2013,09,26,07,03,8.70
2013,09,26,07,04,8.70
2013,09,26,07,05,8.60
2013,09,26,07,06,8.60
2013,09,26,07,07,8.60
2013,09,26,07,08,8.60
2013,09,26,07,09,8.50
2013,09,26,07,10,8.50
2013,09,26,07,11,8.50
2013,09,26,07,12,8.40
2013,09,26,07,13,8.40
2013,09,26,07,14,8.40
2013,09,26,07,15,8.40
2013,09,26,07,16,8.30
2013,09,26,07,17,8.40
2013,09,26,07,18,8.30
2013,09,26,07,19,8.30
2013,09,26,07,20,8.40
2013,09,26,07,21,8.40
2013,09,26,07,22,8.40
2013,09,26,07,23,8.40
2013,09,26,07,24,8.40
2013,09,26,07,25,8.40
2013,09,26,07,26,8.40
2013,09,26,07,27,8.40
2013,09,26,07,28,8.40
2013,09,26,07,29,8.40
2013,09,26,07,30,8.40
2013,09,26,07,31,8.40
2013,09,26,07,32,8.40
2013,09,26,07,33,8.40
2013,09,26,07,34,8.40
2013,09,26,07,35,8.40
2013,09,26,07,36,8.40
2013,09,26,07,37,8.40
2013,09,26,07,38,8.40
2013,09,26,07,39,8.40
2013,09,26,07,40,8.40
2013,09,26,07,41,8.40
2013,09,26,07,42,8.40
2013,09,26,07,43,8.40
2013,09,26,07,44,8.30
2013,09,26,07,45,8.30
2013,09,26,07,46,8.30
2013,09,26,07,47,8.40
2013,09,26,07,48,8.40
2013,09,26,07,49,8.40
2013,09,26,07,50,8.50
2013,09,26,07,51,8.50
2013,09,26,07,52,8.50
2013,09,26,07,53,8.50
2013,09,26,07,54,8.60
2013,09,26,07,55,8.70
2013,09,26,07,56,8.70
2013,09,26,07,57,8.80
2013,09,26,07,58,8.80
2013,09,26,07,59,8.80
2013,09,26,08,00,8.80
2013,09,26,08,01,8.80
2013,09,26,08,02,8.80
2013,09,26,08,03,8.90
2013,09,26,08,04,9.00
2013,09,26,08,05,9.00
2013,09,26,08,06,9.00
2013,09,26,08,07,9.00
2013,09,26,08,08,9.10
2013,09,26,08,09,9.20
2013,09,26,08,10,9.40
2013,09,26,08,11,9.50
2013,09,26,08,12,9.60
2013,09,26,08,13,9.80
2013,09,26,08,14,9.90
2013,09,26,08,15,10.00
2013,09,26,08,16,10.10
2013,09,26,08,17,10.10
2013,09,26,08,18,10.20
2013,09,26,08,19,10.20
2013,09,26,08,20,10.20
2013,09,26,08,21,10.20
2013,09,26,08,22,10.20
2013,09,26,08,23,10.20
2013,09,26,08,24,10.30
2013,09,26,08,25,10.30
2013,09,26,08,26,10.30
2013,09,26,08,27,10.30
2013,09,26,08,28,10.40
2013,09,26,08,29,10.50
2013,09,26,08,30,10.50
2013,09,26,08,31,10.60
2013,09,26,08,32,10.60
2013,09,26,08,33,10.70
2013,09,26,08,34,10.70
2013,09,26,08,35,10.70
2013,09,26,08,36,10.70
2013,09,26,08,37,10.70
2013,09,26,08,38,10.70
2013,09,26,08,39,10.70
2013,09,26,08,40,10.70
2013,09,26,08,41,10.70
2013,09,26,08,42,10.70
2013,09,26,08,43,10.70
2013,09,26,08,44,10.80
2013,09,26,08,45,10.80
2013,09,26,08,46,10.80
2013,09,26,08,47,10.90
2013,09,26,08,48,10.90
2013,09,26,08,49,10.90
2013,09,26,08,50,11.00
2013,09,26,08,51,11.00
2013,09,26,08,52,11.00
2013,09,26,08,53,11.10
2013,09,26,08,54,11.20
2013,09,26,08,55,11.30
2013,09,26,08,56,11.40
2013,09,26,08,57,11.60
2013,09,26,08,58,11.70
2013,09,26,08,59,11.80
2013,09,26,09,00,12.00
2013,09,26,09,01,12.10
2013,09,26,09,02,12.20
2013,09,26,09,03,12.30
2013,09,26,09,04,12.40
2013,09,26,09,05,12.50
2013,09,26,09,06,12.50
2013,09,26,09,07,12.70
2013,09,26,09,08,12.80
2013,09,26,09,09,12.80
2013,09,26,09,10,12.90
2013,09,26,09,11,12.80
2013,09,26,09,12,12.90
2013,09,26,09,13,13.00
2013,09,26,09,14,13.00
2013,09,26,09,15,13.10
2013,09,26,09,16,13.10
2013,09,26,09,17,13.10
2013,09,26,09,18,13.10
2013,09,26,09,19,13.00
2013,09,26,09,20,13.00
2013,09,26,09,21,13.00
2013,09,26,09,22,13.00
2013,09,26,09,23,12.90
2013,09,26,09,24,12.90
2013,09,26,09,25,12.90
2013,09,26,09,26,12.80
2013,09,26,09,27,12.70
2013,09,26,09,28,12.70
2013,09,26,09,29,12.60
2013,09,26,09,30,12.60
2013,09,26,09,31,12.60
2013,09,26,09,32,12.60
2013,09,26,09,33,12.60
2013,09,26,09,34,12.60
2013,09,26,09,35,12.60
2013,09,26,09,36,12.60
2013,09,26,09,37,12.60
2013,09,26,09,38,12.60
2013,09,26,09,39,12.50
2013,09,26,09,40,12.50
2013,09,26,09,41,12.50
2013,09,26,09,42,12.50
2013,09,26,09,43,12.50
2013,09,26,09,44,12.50
2013,09,26,09,45,12.50
2013,09,26,09,46,12.50
2013,09,26,09,47,12.50
2013,09,26,09,48,12.50
2013,09,26,09,49,12.40
2013,09,26,09,50,12.40
2013,09,26,09,51,12.50
2013,09,26,09,52,12.50
2013,09,26,09,53,12.50
2013,09,26,09,54,12.50
2013,09,26,09,55,12.50
2013,09,26,09,56,12.50
2013,09,26,09,57,12.50
2013,09,26,09,58,12.60
2013,09,26,09,59,12.60
2013,09,26,10,00,12.60
2013,09,26,10,01,12.60
2013,09,26,10,02,12.60
2013,09,26,10,03,12.60
2013,09,26,10,04,12.60
2013,09,26,10,05,12.60
2013,09,26,10,06,12.60
2013,09,26,10,07,12.70
2013,09,26,10,08,12.60
2013,09,26,10,09,12.60
2013,09,26,10,10,12.60
2013,09,26,10,11,12.60
2013,09,26,10,12,12.60
2013,09,26,10,13,12.60
2013,09,26,10,14,12.50
2013,09,26,10,15,12.50
2013,09,26,10,16,12.50
2013,09,26,10,17,12.50
2013,09,26,10,18,12.50
2013,09,26,10,19,12.50
2013,09,26,10,20,12.60
2013,09,26,10,21,12.60
2013,09,26,10,22,12.60
2013,09,26,10,23,12.60
2013,09,26,10,24,12.60
2013,09,26,10,25,12.60
2013,09,26,10,26,12.60
2013,09,26,10,27,12.70
2013,09,26,10,28,12.70
2013,09,26,10,29,12.70
2013,09,26,10,30,12.70
2013,09,26,10,31,12.70
2013,09,26,10,32,12.70
2013,09,26,10,33,12.80
2013,09,26,10,34,12.80
2013,09,26,10,35,12.70
2013,09,26,10,36,12.70
2013,09,26,10,37,12.70
2013,09,26,10,38,12.70
2013,09,26,10,39,12.80
2013,09,26,10,40,12.80
2013,09,26,10,41,12.80
2013,09,26,10,42,12.80
2013,09,26,10,43,12.70
2013,09,26,10,44,12.70
2013,09,26,10,45,12.70
2013,09,26,10,46,12.70
2013,09,26,10,47,12.70
2013,09,26,10,48,12.70
2013,09,26,10,49,12.70
2013,09,26,10,50,12.80
2013,09,26,10,51,12.80
2013,09,26,10,52,12.90
2013,09,26,10,53,12.90
2013,09,26,10,54,13.00
2013,09,26,10,55,13.10
2013,09,26,10,56,13.10
2013,09,26,10,57,13.20
2013,09,26,10,58,13.10
2013,09,26,10,59,13.20
2013,09,26,11,00,13.20
2013,09,26,11,01,13.20
2013,09,26,11,02,13.20
2013,09,26,11,03,13.20
2013,09,26,11,04,13.20
2013,09,26,11,05,13.30
2013,09,26,11,06,13.40
2013,09,26,11,07,13.50
2013,09,26,11,08,13.60
2013,09,26,11,09,13.70
2013,09,26,11,10,13.80
2013,09,26,11,11,13.90
2013,09,26,11,12,13.90
2013,09,26,11,13,13.90
2013,09,26,11,14,13.90
2013,09,26,11,15,14.00
2013,09,26,11,16,14.10
2013,09,26,11,17,14.10
2013,09,26,11,18,14.10
2013,09,26,11,19,14.10
2013,09,26,11,20,14.10
2013,09,26,11,21,14.10
2013,09,26,11,22,14.10
2013,09,26,11,23,14.20
2013,09,26,11,24,14.30
2013,09,26,11,25,14.40
2013,09,26,11,26,14.40
2013,09,26,11,27,14.50
2013,09,26,11,28,14.50
2013,09,26,11,29,14.40
2013,09,26,11,30,14.40
2013,09,26,11,31,14.40
2013,09,26,11,32,14.40
2013,09,26,11,33,14.40
2013,09,26,11,34,14.50
2013,09,26,11,35,14.50
2013,09,26,11,36,14.60
2013,09,26,11,37,14.60
2013,09,26,11,38,14.70
2013,09,26,11,39,14.80
2013,09,26,11,40,14.80
2013,09,26,11,41,14.70
2013,09,26,11,42,14.50
2013,09,26,11,43,14.40
2013,09,26,11,44,14.30
2013,09,26,11,45,14.30
2013,09,26,11,46,14.30
2013,09,26,11,47,14.40
2013,09,26,11,48,14.50
2013,09,26,11,49,14.60
2013,09,26,11,50,14.70
2013,09,26,11,51,14.80
2013,09,26,11,52,14.80
2013,09,26,11,53,14.90
2013,09,26,11,54,14.90
2013,09,26,11,55,14.90
2013,09,26,11,56,14.90
2013,09,26,11,57,14.80
2013,09,26,11,58,14.80
2013,09,26,11,59,14.80
2013,09,26,12,00,14.90
2013,09,26,12,01,15.00
2013,09,26,12,02,15.00
2013,09,26,12,03,15.00
2013,09,26,12,04,15.00
2013,09,26,12,05,15.00
2013,09,26,12,06,15.00
2013,09,26,12,07,15.00
2013,09,26,12,08,15.20
2013,09,26,12,09,15.30
2013,09,26,12,10,15.40
2013,09,26,12,11,15.40
2013,09,26,12,12,15.40
2013,09,26,12,13,15.40
2013,09,26,12,14,15.40
2013,09,26,12,15,15.40
2013,09,26,12,16,15.20
2013,09,26,12,17,15.00
2013,09,26,12,18,15.00
2013,09,26,12,19,15.00
2013,09,26,12,20,15.00
2013,09,26,12,21,15.00
2013,09,26,12,22,15.00
2013,09,26,12,23,15.00
2013,09,26,12,24,15.00
2013,09,26,12,25,15.00
2013,09,26,12,26,15.00
2013,09,26,12,27,15.00
2013,09,26,12,28,15.00
2013,09,26,12,29,15.00
2013,09,26,12,30,15.00
2013,09,26,12,31,15.00
2013,09,26,12,32,15.00
2013,09,26,12,33,15.00
2013,09,26,12,34,15.00
2013,09,26,12,35,15.10
2013,09,26,12,36,15.10
2013,09,26,12,37,15.20
2013,09,26,12,38,15.20
2013,09,26,12,39,15.20
2013,09,26,12,40,15.20
2013,09,26,12,41,15.30
2013,09,26,12,42,15.30
2013,09,26,12,43,15.40
2013,09,26,12,44,15.40
2013,09,26,12,45,15.50
2013,09,26,12,46,15.60
2013,09,26,12,47,15.70
2013,09,26,12,48,15.70
2013,09,26,12,49,15.70
2013,09,26,12,50,15.50
2013,09,26,12,51,15.30
2013,09,26,12,52,15.20
2013,09,26,12,53,15.20
2013,09,26,12,54,15.10
2013,09,26,12,55,15.10
2013,09,26,12,56,15.10
2013,09,26,12,57,15.20
2013,09,26,12,58,15.30
2013,09,26,12,59,15.40
2013,09,26,13,00,15.30
2013,09,26,13,01,15.20
2013,09,26,13,02,15.00
2013,09,26,13,03,15.00
2013,09,26,13,04,15.00
2013,09,26,13,05,15.00
2013,09,26,13,06,15.10
2013,09,26,13,07,15.10
2013,09,26,13,08,15.20
2013,09,26,13,09,15.30
2013,09,26,13,10,15.20
2013,09,26,13,11,15.20
2013,09,26,13,12,15.20
2013,09,26,13,13,15.30
2013,09,26,13,14,15.30
2013,09,26,13,15,15.30
2013,09,26,13,16,15.30
2013,09,26,13,17,15.30
2013,09,26,13,18,15.40
2013,09,26,13,19,15.50
2013,09,26,13,20,15.50
2013,09,26,13,21,15.50
2013,09,26,13,22,15.60
2013,09,26,13,23,15.60
2013,09,26,13,24,15.70
2013,09,26,13,25,15.70
2013,09,26,13,26,15.80
2013,09,26,13,27,15.80
2013,09,26,13,28,15.80
2013,09,26,13,29,15.90
2013,09,26,13,30,15.90
2013,09,26,13,31,16.00
2013,09,26,13,32,16.00
2013,09,26,13,33,16.10
2013,09,26,13,34,16.10
2013,09,26,13,35,16.10
2013,09,26,13,36,16.10
2013,09,26,13,37,16.20
2013,09,26,13,38,16.20
2013,09,26,13,39,16.30
2013,09,26,13,40,16.40
2013,09,26,13,41,16.50
2013,09,26,13,42,16.50
2013,09,26,13,43,16.50
2013,09,26,13,44,16.50
2013,09,26,13,45,16.40
2013,09,26,13,46,16.40
2013,09,26,13,47,16.40
2013,09,26,13,48,16.40
2013,09,26,13,49,16.30
2013,09,26,13,50,16.30
2013,09,26,13,51,16.30
2013,09,26,13,52,16.20
2013,09,26,13,53,16.20
2013,09,26,13,54,16.20
2013,09,26,13,55,16.20
2013,09,26,13,56,16.20
2013,09,26,13,57,16.20
2013,09,26,13,58,16.20
2013,09,26,13,59,16.30
2013,09,26,14,00,16.40
2013,09,26,14,01,16.60
2013,09,26,14,02,16.70
2013,09,26,14,03,16.80
2013,09,26,14,04,16.80
2013,09,26,14,05,16.80
2013,09,26,14,06,16.80
2013,09,26,14,07,16.70
2013,09,26,14,08,16.60
2013,09,26,14,09,16.60
2013,09,26,14,10,16.50
2013,09,26,14,11,16.30
2013,09,26,14,12,16.30
2013,09,26,14,13,16.20
2013,09,26,14,14,16.30
2013,09,26,14,15,16.40
2013,09,26,14,16,16.40
2013,09,26,14,17,16.40
2013,09,26,14,18,16.40
2013,09,26,14,19,16.50
2013,09,26,14,20,16.50
2013,09,26,14,21,16.60
2013,09,26,14,22,16.70
2013,09,26,14,23,16.70
2013,09,26,14,24,16.70
2013,09,26,14,25,16.70
2013,09,26,14,26,16.70
2013,09,26,14,27,16.70
2013,09,26,14,28,16.60
2013,09,26,14,29,16.50
2013,09,26,14,30,16.40
2013,09,26,14,31,16.30
2013,09,26,14,32,16.30
2013,09,26,14,33,16.30
2013,09,26,14,34,16.30
2013,09,26,14,35,16.30
2013,09,26,14,36,16.40
2013,09,26,14,37,16.40
2013,09,26,14,38,16.40
2013,09,26,14,39,16.40
2013,09,26,14,40,16.40
2013,09,26,14,41,16.40
2013,09,26,14,42,16.40
2013,09,26,14,43,16.50
2013,09,26,14,44,16.50
2013,09,26,14,45,16.60
2013,09,26,14,46,16.60
2013,09,26,14,47,16.60
2013,09,26,14,48,16.60
2013,09,26,14,49,16.70
2013,09,26,14,50,16.70
2013,09,26,14,51,16.60
2013,09,26,14,52,16.60
2013,09,26,14,53,16.50
2013,09,26,14,54,16.50
2013,09,26,14,55,16.60
2013,09,26,14,56,16.60
2013,09,26,14,57,16.60
2013,09,26,14,58,16.70
2013,09,26,14,59,16.70
2013,09,26,15,00,16.70
2013,09,26,15,01,16.70
2013,09,26,15,02,16.80
2013,09,26,15,03,16.80
2013,09,26,15,04,16.80
2013,09,26,15,05,16.80
2013,09,26,15,06,16.80
2013,09,26,15,07,16.70
2013,09,26,15,08,16.60
2013,09,26,15,09,16.60
2013,09,26,15,10,16.50
2013,09,26,15,11,16.50
2013,09,26,15,12,16.50
2013,09,26,15,13,16.50
2013,09,26,15,14,16.40
2013,09,26,15,15,16.30
2013,09,26,15,16,16.30
2013,09,26,15,17,16.30
2013,09,26,15,18,16.30
2013,09,26,15,19,16.30
2013,09,26,15,20,16.30
2013,09,26,15,21,16.40
2013,09,26,15,22,16.40
2013,09,26,15,23,16.40
2013,09,26,15,24,16.40
2013,09,26,15,25,16.40
2013,09,26,15,26,16.50
2013,09,26,15,27,16.60
2013,09,26,15,28,16.60
2013,09,26,15,29,16.70
2013,09,26,15,30,16.70
2013,09,26,15,31,16.70
2013,09,26,15,32,16.70
2013,09,26,15,33,16.70
2013,09,26,15,34,16.70
2013,09,26,15,35,16.70
2013,09,26,15,36,16.70
2013,09,26,15,37,16.70
2013,09,26,15,38,16.60
2013,09,26,15,39,16.60
2013,09,26,15,40,16.60
2013,09,26,15,41,16.60
2013,09,26,15,42,16.60
2013,09,26,15,43,16.60
2013,09,26,15,44,16.70
2013,09,26,15,45,16.70
2013,09,26,15,46,16.70
2013,09,26,15,47,16.70
2013,09,26,15,48,16.60
2013,09,26,15,49,16.60
2013,09,26,15,50,16.50
2013,09,26,15,51,16.40
2013,09,26,15,52,16.40
2013,09,26,15,53,16.40
2013,09,26,15,54,16.40
2013,09,26,15,55,16.40
2013,09,26,15,56,16.40
2013,09,26,15,57,16.40
2013,09,26,15,58,16.40
2013,09,26,15,59,16.30
2013,09,26,16,00,16.40
2013,09,26,16,01,16.40
2013,09,26,16,02,16.40
2013,09,26,16,03,16.50
2013,09,26,16,04,16.50
2013,09,26,16,05,16.60
2013,09,26,16,06,16.70
2013,09,26,16,07,16.80
2013,09,26,16,08,16.80
2013,09,26,16,09,16.80
2013,09,26,16,10,16.80
2013,09,26,16,11,16.90
2013,09,26,16,12,16.80
2013,09,26,16,13,16.80
2013,09,26,16,14,16.70
2013,09,26,16,15,16.70
2013,09,26,16,16,16.60
2013,09,26,16,17,16.60
2013,09,26,16,18,16.60
2013,09,26,16,19,16.60
2013,09,26,16,20,16.60
2013,09,26,16,21,16.50
2013,09,26,16,22,16.50
2013,09,26,16,23,16.40
2013,09,26,16,24,16.40
2013,09,26,16,25,16.40
2013,09,26,16,26,16.40
2013,09,26,16,27,16.40
2013,09,26,16,28,16.40
2013,09,26,16,29,16.50
2013,09,26,16,30,16.50
2013,09,26,16,31,16.60
2013,09,26,16,32,16.60
2013,09,26,16,33,16.60
2013,09,26,16,34,16.70
2013,09,26,16,35,16.60
2013,09,26,16,36,16.60
2013,09,26,16,37,16.60
2013,09,26,16,38,16.70
2013,09,26,16,39,16.60
2013,09,26,16,40,16.60
2013,09,26,16,41,16.60
2013,09,26,16,42,16.60
2013,09,26,16,43,16.60
2013,09,26,16,44,16.60
2013,09,26,16,45,16.60
2013,09,26,16,46,16.60
2013,09,26,16,47,16.50
2013,09,26,16,48,16.40
2013,09,26,16,49,16.40
2013,09,26,16,50,16.30
2013,09,26,16,51,16.30
2013,09,26,16,52,16.20
2013,09,26,16,53,16.10
2013,09,26,16,54,16.00
2013,09,26,16,55,16.00
2013,09,26,16,56,15.90
2013,09,26,16,57,15.90
2013,09,26,16,58,15.80
2013,09,26,16,59,15.80
2013,09,26,17,00,15.70
2013,09,26,17,01,15.60
2013,09,26,17,02,15.50
2013,09,26,17,03,15.50
2013,09,26,17,04,15.30
2013,09,26,17,05,15.30
2013,09,26,17,06,15.20
2013,09,26,17,07,15.20
2013,09,26,17,08,15.10
2013,09,26,17,09,15.00
2013,09,26,17,10,15.00
2013,09,26,17,11,15.00
2013,09,26,17,12,15.00
2013,09,26,17,13,15.00
2013,09,26,17,14,14.90
2013,09,26,17,15,14.80
2013,09,26,17,16,14.80
2013,09,26,17,17,14.70
2013,09,26,17,18,14.70
2013,09,26,17,19,14.60
2013,09,26,17,20,14.60
2013,09,26,17,21,14.50
2013,09,26,17,22,14.40
2013,09,26,17,23,14.40
2013,09,26,17,24,14.40
2013,09,26,17,25,14.30
2013,09,26,17,26,14.30
2013,09,26,17,27,14.30
2013,09,26,17,28,14.30
2013,09,26,17,29,14.30
2013,09,26,17,30,14.20
2013,09,26,17,31,14.20
2013,09,26,17,32,14.20
2013,09,26,17,33,14.20
2013,09,26,17,34,14.10
2013,09,26,17,35,14.10
2013,09,26,17,36,14.10
2013,09,26,17,37,14.10
2013,09,26,17,38,14.10
2013,09,26,17,39,14.10